This demonstration page uses our WeatherBlox Daily Observations layout. Learn more.

Left ArrowRight Arrow

39.08367, -84.50855

Hourly Observations for August 23, 2015

Temp ( °F °C ) Dew Point ( °F °C ) Humidity (%) Winds ( mph kmh ) Pressure ( in mb ) Visibility ( mi km ) Precip ( " mm )
12:53 am 00:53 Clear 61 16.1 61 16.1 100 100 N N/A 30.04 1017 7 11 N/A
1:53 am 01:53 Clear with Mist and Fog 61 16.1 61 16.1 100 100 N N/A 30.04 1017 5 8 N/A
2:53 am 02:53 Clear with Mist and Fog 61 16.1 61 16.1 100 100 N N/A 30.02 1017 5 8 N/A
3:53 am 03:53 Clear with Mist and Fog 62 16.7 61 16.1 96 96 N N/A 30.00 1016 5 8 N/A
4:53 am 04:53 Clear with Mist and Fog 61 16.1 61 16.1 100 100 ENE 3 6 29.98 1015 5 8 N/A
5:53 am 05:53 Clear with Mist and Fog 60 15.6 60 15.6 100 100 N N/A 29.99 1016 6 10 N/A
6:53 am 06:53 Clear with Mist and Fog 60 15.6 60 15.6 100 100 N N/A 30.00 1016 5 8 N/A
7:53 am 07:53 Sunny with Mist and Fog 62 16.7 61 16.1 96 96 undefined N/A 30.00 1016 4 6 N/A
8:53 am 08:53 Sunny 67 19.4 62 16.7 84 84 N N/A 30.01 1016 10 16 N/A
9:53 am 09:53 Sunny 72 22.2 65 18.3 79 79 VRB 3 6 30.00 1016 10 16 N/A
10:53 am 10:53 Sunny 76 24.4 65 18.3 69 69 N N/A 29.97 1015 10 16 N/A
11:53 am 11:53 Sunny 80 26.7 66 18.9 62 62 SSW 7 11 29.95 1014 10 16 N/A
12:53 pm 12:53 Sunny 83 28.3 64 17.8 53 53 S 9 15 29.93 1014 10 16 N/A
1:53 pm 13:53 Mostly Sunny 84 28.9 65 18.3 53 53 W 7 11 29.93 1014 10 16 N/A
2:53 pm 14:53 Partly Cloudy 84 28.9 67 19.4 57 57 W 8 13 29.92 1013 10 16 N/A
3:53 pm 15:53 Partly Cloudy 84 28.9 68 20 59 59 SW 9 15 29.90 1013 10 16 N/A
4:53 pm 16:53 Mostly Cloudy 83 28.3 69 20.6 63 63 SSW 12 19 29.89 1012 10 16 N/A
5:53 pm 17:53 Mostly Cloudy 82 27.8 69 20.6 65 65 SSW 6 9 29.88 1012 10 16 N/A
6:53 pm 18:53 Mostly Sunny 81 27.2 68 20 65 65 WSW 8 13 29.87 1012 10 16 N/A
7:53 pm 19:53 Mostly Sunny 77 25 71 21.7 82 82 S 5 7 29.87 1011 10 16 N/A
10:53 pm 22:53 Mostly Clear 76 24.4 70 21.1 82 82 SW 9 15 29.89 1012 10 16 N/A
11:53 pm 23:53 Mostly Cloudy 74 23.3 63 17.2 69 69 N 16 26 29.92 1013 10 16 N/A

Powered by AerisWeather